�N����,����,�~����,�C��,���x,�C��,����,���ϕ���,�ő�u�ԕ���,�ő厞����,���˗�,�I�_���x,�n�����x,�ő啗���N��,DTYPE
"23/04/12","00:10",0.0,17.5,72.8,1011.6,294.3,1.6,3.5,344.5,0.00,12.6,15.1,"00:02:24",1
"23/04/12","00:20",0.0,17.5,73.0,1011.9,330.3,1.6,2.7,343.3,0.00,12.7,15.1,"00:12:08",1
"23/04/12","00:30",0.0,17.4,73.6,1011.4,323.4,1.5,2.7,318.9,0.00,12.7,14.9,"00:23:44",1
"23/04/12","00:40",0.0,17.5,74.1,1011.4,308.2,1.6,4.4,334.4,0.00,12.9,14.8,"00:37:52",1
"23/04/12","00:50",0.0,17.5,74.3,1011.9,304.0,1.5,2.2,322.5,0.00,12.9,14.8,"00:41:28",1
"23/04/12","01:00",0.0,17.4,74.6,1011.6,324.1,1.3,2.1,337.3,0.00,12.9,14.8,"00:56:32",1
"23/04/12","01:10",0.0,17.2,75.3,1011.4,326.0,1.3,1.9,329.0,0.00,12.8,14.8,"01:03:52",1
"23/04/12","01:20",0.0,17.0,76.3,1011.2,274.1,0.8,1.4,328.7,0.00,12.8,14.8,"01:14:08",1
"23/04/12","01:30",0.0,17.1,76.7,1011.2,295.2,0.7,1.3,333.9,0.00,13.0,14.9,"01:25:28",1
"23/04/12","01:40",0.0,17.1,76.2,1011.2,251.0,1.2,2.9,260.7,0.00,12.9,14.9,"01:37:52",1
"23/04/12","01:50",0.0,17.2,75.4,1010.9,270.0,1.0,2.5,307.6,0.00,12.9,14.8,"01:42:00",1
"23/04/12","02:00",0.0,17.2,74.9,1010.7,237.0,0.3,0.9,265.3,0.00,12.8,14.9,"01:56:08",1
"23/04/12","02:10",0.0,17.0,74.8,1010.9,242.6,0.6,1.6,215.3,0.00,12.5,14.7,"02:05:04",1
"23/04/12","02:20",0.0,16.9,74.8,1010.2,308.7,0.5,0.9,304.3,0.00,12.4,14.8,"02:13:28",1
"23/04/12","02:30",0.0,16.7,75.9,1010.0,331.8,0.8,1.8,331.8,0.00,12.5,14.8,"02:27:14",1
"23/04/12","02:40",0.0,15.9,78.0,1010.0,341.8,1.7,2.5,335.1,0.00,12.1,14.7,"02:32:32",1
"23/04/12","02:50",0.0,15.6,79.2,1009.7,299.0,1.1,1.7,266.0,0.00,12.1,14.8,"02:46:12",1
"23/04/12","03:00",0.0,15.4,80.4,1009.5,239.6,0.7,1.8,240.2,0.00,12.1,14.9,"02:53:04",1
"23/04/12","03:10",0.0,15.5,80.9,1009.5,349.6,1.2,2.2,350.7,0.00,12.3,14.7,"03:05:34",1
"23/04/12","03:20",0.0,15.0,81.8,1009.7,320.2,1.3,1.8,303.4,0.00,12.0,14.7,"03:17:36",1
"23/04/12","03:30",0.0,14.8,82.8,1009.7,287.1,1.3,1.9,273.9,0.00,11.9,14.7,"03:27:46",1
"23/04/12","03:40",0.0,14.7,83.5,1009.7,286.7,1.5,1.9,262.2,0.00,12.0,14.6,"03:30:48",1
"23/04/12","03:50",0.0,14.6,83.8,1009.5,304.7,1.2,2.0,267.9,0.00,11.9,14.6,"03:40:32",1
"23/04/12","04:00",0.0,14.5,84.1,1009.7,330.5,1.3,2.0,339.4,0.00,11.9,14.7,"03:55:48",1
"23/04/12","04:10",0.0,14.3,84.6,1009.7,309.6,1.3,2.1,335.8,0.00,11.8,14.3,"04:08:08",1
"23/04/12","04:20",0.0,14.1,84.9,1009.3,312.4,1.5,2.1,319.9,0.00,11.6,14.6,"04:11:52",1
"23/04/12","04:30",0.0,14.0,85.3,1009.5,306.0,1.2,2.2,310.2,0.00,11.6,14.5,"04:26:24",1
"23/04/12","04:40",0.0,13.8,85.7,1009.5,340.8,1.0,1.8,307.5,0.00,11.5,14.5,"04:39:52",1
"23/04/12","04:50",0.0,13.7,86.2,1009.5,306.8,0.8,1.8,298.2,0.00,11.5,14.5,"04:40:32",1
"23/04/12","05:00",0.0,13.5,86.6,1008.8,287.0,0.7,1.6,268.9,0.00,11.4,14.7,"04:50:02",1
"23/04/12","05:10",0.0,13.5,87.0,1008.6,301.3,1.6,2.5,316.6,0.00,11.4,14.6,"05:04:28",1
"23/04/12","05:20",0.0,13.4,87.2,1008.8,291.9,1.3,1.9,258.8,0.00,11.4,14.4,"05:10:24",1
"23/04/12","05:30",0.0,13.4,87.4,1009.3,328.4,1.6,2.1,338.7,0.00,11.4,14.5,"05:25:40",1
"23/04/12","05:40",0.0,13.1,87.5,1008.3,278.7,0.8,1.3,257.4,0.00,11.1,14.4,"05:34:08",1
"23/04/12","05:50",0.0,13.1,88.0,1008.6,312.2,1.6,2.6,338.4,0.00,11.2,14.2,"05:47:18",1
"23/04/12","06:00",0.0,13.0,88.3,1008.8,300.3,1.2,2.4,317.9,0.00,11.2,14.4,"05:50:52",1
"23/04/12","06:10",0.0,13.0,88.8,1009.0,282.6,1.5,1.7,273.9,0.00,11.2,14.5,"06:02:04",1
"23/04/12","06:20",0.0,13.3,88.9,1008.8,291.3,1.2,2.0,290.1,0.00,11.5,14.2,"06:12:00",1
"23/04/12","06:30",0.0,13.3,89.0,1008.8,309.8,1.3,1.9,330.5,0.00,11.6,14.3,"06:29:52",1
"23/04/12","06:40",0.0,13.2,89.1,1008.6,307.0,1.1,2.1,333.7,0.00,11.5,14.2,"06:32:02",1
"23/04/12","06:50",0.0,13.2,89.5,1008.8,282.4,1.2,2.2,262.3,0.00,11.6,14.4,"06:49:36",1
"23/04/12","07:00",0.0,13.4,89.7,1008.3,276.2,1.7,2.1,258.0,0.00,11.8,14.2,"06:50:32",1
"23/04/12","07:10",0.0,13.7,89.8,1008.6,312.6,1.3,1.9,344.4,0.00,12.1,14.4,"07:09:20",1
"23/04/12","07:20",0.0,13.9,89.8,1008.8,324.5,1.1,1.9,350.5,0.02,12.3,14.3,"07:11:24",1
"23/04/12","07:30",0.0,14.1,89.7,1008.8,302.0,1.2,2.1,330.7,0.02,12.5,14.3,"07:28:24",1
"23/04/12","07:40",0.0,14.3,89.6,1009.0,297.8,1.3,1.7,303.7,0.01,12.7,14.2,"07:30:10",1
"23/04/12","07:50",0.0,14.3,89.3,1009.0,295.0,1.2,1.7,310.8,0.00,12.6,14.1,"07:43:44",1
"23/04/12","08:00",0.0,14.4,89.1,1008.6,300.2,1.1,1.6,306.9,0.00,12.7,14.4,"07:52:16",1
"23/04/12","08:10",0.0,14.7,88.9,1008.8,329.9,1.3,2.0,336.6,0.01,12.9,14.1,"08:04:56",1
"23/04/12","08:20",0.0,14.9,88.9,1008.3,268.6,0.6,1.1,283.5,0.04,13.1,14.2,"08:13:02",1
"23/04/12","08:30",0.0,15.2,88.8,1008.3,312.1,1.3,2.2,338.6,0.07,13.4,14.2,"08:29:58",1
"23/04/12","08:40",0.0,15.5,88.6,1008.6,333.4,2.0,2.7,337.0,0.13,13.7,14.2,"08:32:32",1
"23/04/12","08:50",0.0,16.1,87.4,1008.1,314.7,1.2,2.5,339.3,0.16,14.0,14.4,"08:44:40",1
"23/04/12","09:00",0.0,17.1,84.6,1008.1,213.0,0.6,1.3,158.8,0.21,14.5,14.2,"08:56:00",1
"23/04/12","09:10",0.0,18.1,79.7,1008.1,209.7,0.8,2.1,153.9,0.26,14.6,14.4,"09:09:40",1
"23/04/12","09:20",0.0,18.4,74.7,1008.1,208.4,0.7,1.8,203.5,0.16,13.9,14.3,"09:12:16",1
"23/04/12","09:30",0.0,18.4,73.1,1007.8,157.6,0.8,1.8,209.2,0.11,13.5,14.3,"09:22:24",1
"23/04/12","09:40",0.0,18.2,73.1,1007.8,94.5,0.7,2.6,126.3,0.09,13.3,14.3,"09:31:44",1
"23/04/12","09:50",0.0,18.3,73.6,1007.6,122.0,0.7,1.7,111.5,0.10,13.5,14.3,"09:40:02",1
"23/04/12","10:00",0.0,18.5,72.8,1007.6,89.7,0.7,2.0,109.1,0.15,13.6,14.4,"09:50:48",1
"23/04/12","10:10",0.0,19.0,71.8,1007.6,21.8,0.7,1.7,344.1,0.12,13.8,14.6,"10:06:48",1
"23/04/12","10:20",0.0,18.9,70.9,1007.6,339.6,0.8,2.0,357.0,0.07,13.5,14.4,"10:13:20",1
"23/04/12","10:30",0.0,18.8,70.7,1007.8,43.1,0.5,1.2,110.5,0.05,13.4,14.6,"10:23:12",1
"23/04/12","10:40",0.0,18.7,72.2,1007.4,321.6,1.0,2.5,341.3,0.07,13.6,14.7,"10:35:36",1
"23/04/12","10:50",0.0,19.1,74.1,1007.6,352.5,0.8,1.8,352.3,0.12,14.4,14.7,"10:40:02",1
"23/04/12","11:00",0.0,19.0,74.4,1007.8,326.1,1.2,2.2,332.6,0.13,14.4,14.7,"10:54:40",1
"23/04/12","11:10",0.2,18.8,74.9,1007.8,301.6,1.1,3.5,264.4,0.08,14.3,14.6,"11:08:08",1
"23/04/12","11:20",0.0,18.7,76.8,1007.6,286.1,0.8,2.2,261.9,0.06,14.6,14.7,"11:10:32",1
"23/04/12","11:30",0.4,18.1,79.2,1007.6,279.1,1.6,3.5,257.6,0.11,14.5,14.7,"11:28:24",1
"23/04/12","11:40",0.2,18.1,81.7,1007.6,267.7,2.0,3.5,330.6,0.24,15.0,14.8,"11:31:20",1
"23/04/12","11:50",0.0,18.1,82.9,1007.4,273.1,1.8,3.9,248.4,0.22,15.2,14.9,"11:40:08",1
"23/04/12","12:00",0.0,17.7,83.9,1007.6,294.7,2.1,4.9,314.5,0.13,15.0,14.7,"11:59:44",1
"23/04/12","12:10",0.0,16.9,85.1,1008.1,286.1,3.2,5.6,296.9,0.08,14.4,15.0,"12:06:48",1
"23/04/12","12:20",0.0,15.9,86.6,1008.1,311.4,3.9,6.7,295.2,0.09,13.7,14.8,"12:18:06",1
"23/04/12","12:30",0.0,14.7,86.8,1008.1,349.0,4.6,9.7,4.3,0.08,12.6,14.8,"12:22:00",1
"23/04/12","12:40",0.2,14.4,87.3,1008.1,344.0,4.1,7.4,346.8,0.11,12.4,14.7,"12:39:48",1
"23/04/12","12:50",0.0,14.2,88.1,1008.1,347.5,3.6,7.0,353.1,0.20,12.3,14.9,"12:40:56",1
"23/04/12","13:00",0.0,14.7,88.1,1008.1,342.2,3.5,5.9,352.9,0.27,12.8,15.0,"12:51:36",1
"23/04/12","13:10",0.0,14.2,87.7,1007.8,339.9,3.5,7.1,356.6,0.19,12.2,14.9,"13:06:48",1
"23/04/12","13:20",0.0,14.3,87.9,1008.1,339.1,3.2,5.1,308.7,0.26,12.4,15.0,"13:17:02",1
"23/04/12","13:30",0.0,14.6,88.2,1008.3,343.4,2.6,4.4,347.2,0.30,12.7,15.1,"13:28:06",1
"23/04/12","13:40",0.0,14.7,87.2,1007.8,3.8,1.8,5.5,56.3,0.23,12.6,14.9,"13:39:52",1
"23/04/12","13:50",0.0,14.8,85.9,1008.1,344.1,2.2,4.8,317.1,0.13,12.5,15.0,"13:49:12",1
"23/04/12","14:00",0.0,14.7,84.7,1008.3,337.5,2.8,5.6,25.7,0.12,12.2,15.1,"13:56:48",1
"23/04/12","14:10",0.0,14.7,83.8,1008.3,346.0,3.2,6.3,333.8,0.16,12.0,14.9,"14:03:14",1
"23/04/12","14:20",0.0,15.1,83.1,1008.1,318.3,2.3,4.7,346.6,0.19,12.3,15.0,"14:19:36",1
"23/04/12","14:30",0.0,15.1,81.9,1008.1,332.5,2.1,3.6,322.7,0.08,12.1,15.0,"14:23:28",1
"23/04/12","14:40",0.0,14.5,81.4,1008.3,342.5,3.0,5.7,341.9,0.05,11.4,15.1,"14:36:08",1
"23/04/12","14:50",0.0,14.1,81.9,1008.3,335.1,3.7,7.1,338.1,0.03,11.1,15.1,"14:44:14",1
"23/04/12","15:00",0.0,13.8,82.7,1008.3,339.4,3.9,7.3,338.1,0.03,11.0,15.1,"14:54:36",1
"23/04/12","15:10",0.0,13.5,83.4,1008.3,338.7,3.4,7.0,340.9,0.04,10.8,15.3,"15:00:40",1
"23/04/12","15:20",0.0,12.8,84.5,1008.3,339.3,3.5,6.0,338.9,0.03,10.3,14.9,"15:16:02",1
"23/04/12","15:30",0.0,12.5,84.3,1008.6,340.9,2.8,5.8,333.9,0.04,10.0,15.0,"15:21:20",1
"23/04/12","15:40",0.2,12.7,83.4,1008.6,332.7,3.5,7.5,330.2,0.10,10.0,15.0,"15:32:24",1
"23/04/12","15:50",0.0,13.4,82.5,1008.6,332.6,3.5,7.7,348.5,0.14,10.5,14.9,"15:42:32",1
"23/04/12","16:00",0.0,13.2,80.3,1008.3,332.4,4.5,7.7,338.2,0.13,9.9,14.8,"15:54:20",1
"23/04/12","16:10",0.0,13.2,79.6,1008.3,340.1,3.6,6.5,339.7,0.09,9.8,14.8,"16:03:00",1
"23/04/12","16:20",0.0,13.2,79.0,1008.6,336.4,3.4,6.4,334.1,0.07,9.7,14.9,"16:12:32",1
"23/04/12","16:30",0.0,13.4,78.3,1008.6,343.0,2.8,5.6,343.7,0.08,9.7,15.1,"16:26:28",1
"23/04/12","16:40",0.0,13.6,77.6,1008.3,334.3,3.1,5.6,337.3,0.10,9.8,15.0,"16:33:38",1
"23/04/12","16:50",0.0,13.7,76.9,1008.6,345.1,3.4,6.3,321.3,0.09,9.8,14.9,"16:46:12",1
"23/04/12","17:00",0.0,14.2,77.0,1008.8,332.0,2.8,5.9,335.8,0.13,10.3,14.7,"16:51:22",1
"23/04/12","17:10",0.0,14.3,75.4,1008.6,346.4,2.8,5.2,335.6,0.12,10.1,14.8,"17:03:20",1
"23/04/12","17:20",0.0,14.4,75.2,1008.6,350.1,2.5,5.7,347.0,0.10,10.1,14.9,"17:10:18",1
"23/04/12","17:30",0.0,14.8,74.5,1008.6,346.3,2.7,6.4,328.2,0.11,10.4,14.9,"17:23:52",1
"23/04/12","17:40",0.0,14.7,74.2,1008.8,346.5,2.5,4.3,336.5,0.08,10.2,14.9,"17:33:14",1
"23/04/12","17:50",0.0,14.7,74.1,1009.0,345.7,2.1,4.5,303.7,0.06,10.2,14.8,"17:43:36",1
"23/04/12","18:00",0.0,14.7,74.4,1008.8,341.4,2.2,4.5,343.5,0.06,10.2,14.7,"17:51:52",1
"23/04/12","18:10",0.0,14.2,74.3,1009.0,356.5,2.7,8.2,350.3,0.04,9.7,14.9,"18:05:28",1
"23/04/12","18:20",0.0,14.0,74.7,1009.5,352.7,2.7,5.2,341.1,0.03,9.6,14.7,"18:10:34",1
"23/04/12","18:30",0.0,13.7,74.7,1009.5,353.9,2.0,4.3,350.7,0.01,9.3,14.9,"18:29:04",1
"23/04/12","18:40",0.0,13.4,75.0,1009.0,358.4,2.2,5.9,353.3,0.01,9.1,14.9,"18:38:52",1
"23/04/12","18:50",0.0,13.2,75.3,1010.0,354.4,2.0,3.4,342.4,0.00,9.0,14.8,"18:47:08",1
"23/04/12","19:00",0.0,12.9,75.8,1009.3,355.2,2.0,3.9,358.7,0.00,8.8,14.7,"18:55:32",1
"23/04/12","19:10",0.0,12.6,76.6,1009.7,344.8,2.0,3.9,3.6,0.00,8.6,14.7,"19:00:08",1
"23/04/12","19:20",0.0,12.4,77.3,1010.0,336.0,1.8,4.0,339.8,0.00,8.6,14.8,"19:10:48",1
"23/04/12","19:30",0.0,11.9,78.7,1010.2,341.5,1.7,2.6,344.5,0.00,8.4,14.9,"19:29:48",1
"23/04/12","19:40",0.0,11.7,79.6,1010.4,350.8,2.0,3.3,354.1,0.00,8.3,14.8,"19:34:34",1
"23/04/12","19:50",0.0,11.8,79.1,1010.7,0.5,2.0,4.0,342.6,0.00,8.3,14.5,"19:47:02",1
"23/04/12","20:00",0.0,11.6,78.7,1010.7,350.2,1.6,2.9,347.7,0.00,8.1,14.6,"19:56:08",1
"23/04/12","20:10",0.0,11.5,78.5,1010.7,346.9,1.6,3.2,342.6,0.00,7.9,14.5,"20:02:28",1
"23/04/12","20:20",0.0,11.5,78.2,1010.7,351.6,1.6,2.5,327.5,0.00,7.9,14.4,"20:19:10",1
"23/04/12","20:30",0.0,11.2,78.3,1010.7,327.6,2.0,2.9,312.4,0.00,7.6,14.6,"20:22:40",1
"23/04/12","20:40",0.0,10.8,79.4,1010.7,313.9,2.5,3.6,257.6,0.00,7.4,14.5,"20:33:12",1
"23/04/12","20:50",0.0,10.6,80.3,1011.4,325.9,2.3,4.4,315.8,0.00,7.4,14.5,"20:41:44",1
"23/04/12","21:00",0.0,10.0,81.5,1011.2,307.4,1.8,3.1,305.9,0.00,7.0,14.3,"20:59:36",1
"23/04/12","21:10",0.0,10.2,81.9,1011.6,327.5,2.6,5.4,329.8,0.00,7.3,14.2,"21:07:20",1
"23/04/12","21:20",0.0,10.2,81.3,1011.9,327.4,2.2,3.6,319.7,0.00,7.2,14.2,"21:11:04",1
"23/04/12","21:30",0.0,10.6,80.4,1012.1,359.6,2.0,3.5,357.3,0.00,7.4,14.1,"21:28:12",1
"23/04/12","21:40",0.0,11.0,78.1,1012.6,348.7,2.3,4.5,324.9,0.00,7.4,13.9,"21:38:24",1
"23/04/12","21:50",0.0,10.5,77.7,1012.6,320.8,1.6,3.1,314.8,0.00,6.8,14.1,"21:45:04",1
"23/04/12","22:00",0.0,9.8,79.2,1012.6,339.0,1.6,3.9,344.3,0.00,6.4,14.2,"21:59:12",1
"23/04/12","22:10",0.0,9.5,81.3,1012.3,294.5,2.6,4.0,306.0,0.00,6.5,13.9,"22:02:16",1
"23/04/12","22:20",0.0,8.9,83.3,1012.3,302.2,1.7,3.2,319.5,0.00,6.3,14.2,"22:10:24",1
"23/04/12","22:30",0.0,8.5,84.7,1011.9,334.8,2.0,3.2,332.6,0.00,6.1,14.0,"22:26:32",1
"23/04/12","22:40",0.0,8.0,85.8,1012.1,303.6,2.0,3.7,313.2,0.00,5.8,13.9,"22:35:52",1
"23/04/12","22:50",0.0,8.0,87.1,1011.9,301.5,2.3,4.4,324.1,0.00,6.0,13.9,"22:46:08",1
"23/04/12","23:00",0.0,7.9,87.9,1012.1,325.3,2.7,3.3,329.7,0.00,6.1,13.8,"22:52:00",1
"23/04/12","23:10",0.0,7.7,88.4,1012.6,308.5,2.2,3.4,320.7,0.00,5.9,13.6,"23:03:28",1
"23/04/12","23:20",0.0,7.5,88.9,1012.1,289.1,1.7,2.5,270.9,0.00,5.8,13.8,"23:13:36",1
"23/04/12","23:30",0.0,7.4,89.3,1012.3,305.2,2.2,3.6,317.9,0.00,5.8,13.6,"23:21:20",1
"23/04/12","23:40",0.0,7.4,89.8,1012.1,330.4,2.0,2.8,338.5,0.00,5.9,13.7,"23:32:56",1
"23/04/12","23:50",0.0,7.3,90.0,1012.6,318.3,2.6,3.6,334.7,0.00,5.8,13.5,"23:42:00",1
"23/04/12","24:00",0.0,7.4,90.1,1012.3,307.4,2.5,3.3,324.4,0.00,5.9,13.4,"23:52:48",1
